Year,Month,Day,Hour,Minute,Value (Times are PST for temperature in C)
2019,05,24,00,00,14.20
2019,05,24,00,01,14.20
2019,05,24,00,02,14.20
2019,05,24,00,03,14.10
2019,05,24,00,04,14.10
2019,05,24,00,05,14.10
2019,05,24,00,06,14.10
2019,05,24,00,07,14.10
2019,05,24,00,08,14.10
2019,05,24,00,09,14.10
2019,05,24,00,10,14.00
2019,05,24,00,11,14.00
2019,05,24,00,12,14.00
2019,05,24,00,13,14.00
2019,05,24,00,14,13.90
2019,05,24,00,15,13.90
2019,05,24,00,16,13.90
2019,05,24,00,17,13.90
2019,05,24,00,18,13.90
2019,05,24,00,19,13.90
2019,05,24,00,20,13.90
2019,05,24,00,21,13.90
2019,05,24,00,22,13.90
2019,05,24,00,23,13.90
2019,05,24,00,24,13.90
2019,05,24,00,25,13.90
2019,05,24,00,26,13.90
2019,05,24,00,27,13.90
2019,05,24,00,28,13.90
2019,05,24,00,29,13.90
2019,05,24,00,30,13.90
2019,05,24,00,31,13.90
2019,05,24,00,32,13.90
2019,05,24,00,33,13.80
2019,05,24,00,34,13.80
2019,05,24,00,35,13.80
2019,05,24,00,36,13.80
2019,05,24,00,37,13.80
2019,05,24,00,38,13.80
2019,05,24,00,39,13.80
2019,05,24,00,40,13.80
2019,05,24,00,41,13.80
2019,05,24,00,42,13.80
2019,05,24,00,43,13.80
2019,05,24,00,44,13.80
2019,05,24,00,45,13.80
2019,05,24,00,46,13.70
2019,05,24,00,47,13.70
2019,05,24,00,48,13.70
2019,05,24,00,49,13.70
2019,05,24,00,50,13.70
2019,05,24,00,51,13.70
2019,05,24,00,52,13.70
2019,05,24,00,53,13.60
2019,05,24,00,54,13.60
2019,05,24,00,55,13.60
2019,05,24,00,56,13.60
2019,05,24,00,57,13.60
2019,05,24,00,58,13.60
2019,05,24,00,59,13.60
2019,05,24,01,00,13.60
2019,05,24,01,01,13.60
2019,05,24,01,02,13.60
2019,05,24,01,03,13.60
2019,05,24,01,04,13.60
2019,05,24,01,05,13.60
2019,05,24,01,06,13.60
2019,05,24,01,07,13.60
2019,05,24,01,08,13.60
2019,05,24,01,09,13.60
2019,05,24,01,10,13.60
2019,05,24,01,11,13.50
2019,05,24,01,12,13.50
2019,05,24,01,13,13.50
2019,05,24,01,14,13.50
2019,05,24,01,15,13.50
2019,05,24,01,16,13.50
2019,05,24,01,17,13.50
2019,05,24,01,18,13.60
2019,05,24,01,19,13.60
2019,05,24,01,20,13.60
2019,05,24,01,21,13.60
2019,05,24,01,22,13.60
2019,05,24,01,23,13.60
2019,05,24,01,24,13.60
2019,05,24,01,25,13.60
2019,05,24,01,26,13.60
2019,05,24,01,27,13.60
2019,05,24,01,28,13.60
2019,05,24,01,29,13.60
2019,05,24,01,30,13.60
2019,05,24,01,31,13.60
2019,05,24,01,32,13.60
2019,05,24,01,33,13.60
2019,05,24,01,34,13.60
2019,05,24,01,35,13.60
2019,05,24,01,36,13.50
2019,05,24,01,37,13.50
2019,05,24,01,38,13.60
2019,05,24,01,39,13.60
2019,05,24,01,40,13.60
2019,05,24,01,41,13.60
2019,05,24,01,42,13.60
2019,05,24,01,43,13.60
2019,05,24,01,44,13.60
2019,05,24,01,45,13.60
2019,05,24,01,46,13.60
2019,05,24,01,47,13.60
2019,05,24,01,48,13.50
2019,05,24,01,49,13.50
2019,05,24,01,50,13.50
2019,05,24,01,51,13.40
2019,05,24,01,52,13.40
2019,05,24,01,53,13.40
2019,05,24,01,54,13.40
2019,05,24,01,55,13.40
2019,05,24,01,56,13.30
2019,05,24,01,57,13.30
2019,05,24,01,58,13.30
2019,05,24,01,59,13.30
2019,05,24,02,00,13.30
2019,05,24,02,01,13.20
2019,05,24,02,02,13.20
2019,05,24,02,03,13.20
2019,05,24,02,04,13.20
2019,05,24,02,05,13.20
2019,05,24,02,06,13.10
2019,05,24,02,07,13.10
2019,05,24,02,08,13.10
2019,05,24,02,09,13.10
2019,05,24,02,10,13.10
2019,05,24,02,11,13.10
2019,05,24,02,12,13.10
2019,05,24,02,13,13.10
2019,05,24,02,14,13.10
2019,05,24,02,15,13.10
2019,05,24,02,16,13.10
2019,05,24,02,17,13.10
2019,05,24,02,18,13.10
2019,05,24,02,19,13.20
2019,05,24,02,20,13.20
2019,05,24,02,21,13.20
2019,05,24,02,22,13.20
2019,05,24,02,23,13.20
2019,05,24,02,24,13.30
2019,05,24,02,25,13.30
2019,05,24,02,26,13.30
2019,05,24,02,27,13.30
2019,05,24,02,28,13.30
2019,05,24,02,29,13.30
2019,05,24,02,30,13.30
2019,05,24,02,31,13.30
2019,05,24,02,32,13.30
2019,05,24,02,33,13.30
2019,05,24,02,34,13.30
2019,05,24,02,35,13.30
2019,05,24,02,36,13.30
2019,05,24,02,37,13.30
2019,05,24,02,38,13.30
2019,05,24,02,39,13.30
2019,05,24,02,40,13.20
2019,05,24,02,41,13.20
2019,05,24,02,42,13.20
2019,05,24,02,43,13.30
2019,05,24,02,44,13.20
2019,05,24,02,45,13.20
2019,05,24,02,46,13.20
2019,05,24,02,47,13.20
2019,05,24,02,48,13.20
2019,05,24,02,49,13.20
2019,05,24,02,50,13.30
2019,05,24,02,51,13.30
2019,05,24,02,52,13.30
2019,05,24,02,53,13.30
2019,05,24,02,54,13.30
2019,05,24,02,55,13.30
2019,05,24,02,56,13.30
2019,05,24,02,57,13.40
2019,05,24,02,58,13.40
2019,05,24,02,59,13.40
2019,05,24,03,00,13.30
2019,05,24,03,01,13.30
2019,05,24,03,02,13.40
2019,05,24,03,03,13.30
2019,05,24,03,04,13.40
2019,05,24,03,05,13.30
2019,05,24,03,06,13.30
2019,05,24,03,07,13.30
2019,05,24,03,08,13.30
2019,05,24,03,09,13.30
2019,05,24,03,10,13.30
2019,05,24,03,11,13.30
2019,05,24,03,12,13.20
2019,05,24,03,13,13.20
2019,05,24,03,14,13.20
2019,05,24,03,15,13.20
2019,05,24,03,16,13.20
2019,05,24,03,17,13.20
2019,05,24,03,18,13.20
2019,05,24,03,19,13.20
2019,05,24,03,20,13.20
2019,05,24,03,21,13.20
2019,05,24,03,22,13.20
2019,05,24,03,23,13.10
2019,05,24,03,24,13.10
2019,05,24,03,25,13.00
2019,05,24,03,26,12.90
2019,05,24,03,27,12.90
2019,05,24,03,28,12.90
2019,05,24,03,29,12.80
2019,05,24,03,30,12.80
2019,05,24,03,31,12.80
2019,05,24,03,32,12.80
2019,05,24,03,33,12.70
2019,05,24,03,34,12.70
2019,05,24,03,35,12.70
2019,05,24,03,36,12.70
2019,05,24,03,37,12.70
2019,05,24,03,38,12.60
2019,05,24,03,39,12.60
2019,05,24,03,40,12.60
2019,05,24,03,41,12.60
2019,05,24,03,42,12.60
2019,05,24,03,43,12.60
2019,05,24,03,44,12.60
2019,05,24,03,45,12.60
2019,05,24,03,46,12.60
2019,05,24,03,47,12.50
2019,05,24,03,48,12.50
2019,05,24,03,49,12.40
2019,05,24,03,50,12.40
2019,05,24,03,51,12.40
2019,05,24,03,52,12.40
2019,05,24,03,53,12.30
2019,05,24,03,54,12.30
2019,05,24,03,55,12.30
2019,05,24,03,56,12.30
2019,05,24,03,57,12.30
2019,05,24,03,58,12.30
2019,05,24,03,59,12.30
2019,05,24,04,00,12.20
2019,05,24,04,01,12.20
2019,05,24,04,02,12.20
2019,05,24,04,03,12.20
2019,05,24,04,04,12.20
2019,05,24,04,05,12.20
2019,05,24,04,06,12.20
2019,05,24,04,07,12.20
2019,05,24,04,08,12.20
2019,05,24,04,09,12.20
2019,05,24,04,10,12.30
2019,05,24,04,11,12.20
2019,05,24,04,12,12.20
2019,05,24,04,13,12.20
2019,05,24,04,14,12.20
2019,05,24,04,15,12.20
2019,05,24,04,16,12.10
2019,05,24,04,17,12.10
2019,05,24,04,18,12.10
2019,05,24,04,19,12.10
2019,05,24,04,20,12.10
2019,05,24,04,21,12.10
2019,05,24,04,22,12.10
2019,05,24,04,23,12.10
2019,05,24,04,24,12.00
2019,05,24,04,25,11.90
2019,05,24,04,26,11.90
2019,05,24,04,27,11.90
2019,05,24,04,28,11.90
2019,05,24,04,29,11.90
2019,05,24,04,30,11.80
2019,05,24,04,31,11.80
2019,05,24,04,32,11.80
2019,05,24,04,33,11.80
2019,05,24,04,34,11.80
2019,05,24,04,35,11.80
2019,05,24,04,36,11.80
2019,05,24,04,37,11.80
2019,05,24,04,38,11.70
2019,05,24,04,39,11.70
2019,05,24,04,40,11.70
2019,05,24,04,41,11.70
2019,05,24,04,42,11.70
2019,05,24,04,43,11.70
2019,05,24,04,44,11.60
2019,05,24,04,45,11.60
2019,05,24,04,46,11.60
2019,05,24,04,47,11.60
2019,05,24,04,48,11.60
2019,05,24,04,49,11.60
2019,05,24,04,50,11.60
2019,05,24,04,51,11.60
2019,05,24,04,52,11.60
2019,05,24,04,53,11.60
2019,05,24,04,54,11.60
2019,05,24,04,55,11.50
2019,05,24,04,56,11.50
2019,05,24,04,57,11.40
2019,05,24,04,58,11.40
2019,05,24,04,59,11.40
2019,05,24,05,00,11.30
2019,05,24,05,01,11.40
2019,05,24,05,02,11.30
2019,05,24,05,03,11.30
2019,05,24,05,04,11.30
2019,05,24,05,05,11.30
2019,05,24,05,06,11.30
2019,05,24,05,07,11.30
2019,05,24,05,08,11.30
2019,05,24,05,09,11.30
2019,05,24,05,10,11.30
2019,05,24,05,11,11.30
2019,05,24,05,12,11.30
2019,05,24,05,13,11.30
2019,05,24,05,14,11.30
2019,05,24,05,15,11.30
2019,05,24,05,16,11.30
2019,05,24,05,17,11.30
2019,05,24,05,18,11.30
2019,05,24,05,19,11.20
2019,05,24,05,20,11.20
2019,05,24,05,21,11.20
2019,05,24,05,22,11.10
2019,05,24,05,23,11.10
2019,05,24,05,24,11.10
2019,05,24,05,25,11.10
2019,05,24,05,26,11.10
2019,05,24,05,27,11.00
2019,05,24,05,28,10.90
2019,05,24,05,29,10.90
2019,05,24,05,30,10.90
2019,05,24,05,31,10.90
2019,05,24,05,32,10.90
2019,05,24,05,33,10.90
2019,05,24,05,34,10.90
2019,05,24,05,35,11.00
2019,05,24,05,36,10.90
2019,05,24,05,37,10.90
2019,05,24,05,38,10.90
2019,05,24,05,39,10.90
2019,05,24,05,40,10.90
2019,05,24,05,41,10.90
2019,05,24,05,42,10.90
2019,05,24,05,43,10.90
2019,05,24,05,44,10.90
2019,05,24,05,45,10.90
2019,05,24,05,46,10.90
2019,05,24,05,47,10.90
2019,05,24,05,48,10.90
2019,05,24,05,49,10.90
2019,05,24,05,50,10.90
2019,05,24,05,51,10.90
2019,05,24,05,52,10.90
2019,05,24,05,53,10.90
2019,05,24,05,54,10.90
2019,05,24,05,55,10.90
2019,05,24,05,56,10.90
2019,05,24,05,57,10.90
2019,05,24,05,58,10.90
2019,05,24,05,59,10.90
2019,05,24,06,00,10.90
2019,05,24,06,01,10.90
2019,05,24,06,02,10.90
2019,05,24,06,03,10.90
2019,05,24,06,04,10.90
2019,05,24,06,05,10.90
2019,05,24,06,06,11.00
2019,05,24,06,07,11.00
2019,05,24,06,08,11.00
2019,05,24,06,09,11.00
2019,05,24,06,10,11.00
2019,05,24,06,11,10.90
2019,05,24,06,12,11.00
2019,05,24,06,13,10.90
2019,05,24,06,14,11.00
2019,05,24,06,15,11.00
2019,05,24,06,16,11.00
2019,05,24,06,17,11.00
2019,05,24,06,18,11.00
2019,05,24,06,19,11.00
2019,05,24,06,20,11.00
2019,05,24,06,21,11.00
2019,05,24,06,22,10.90
2019,05,24,06,23,10.90
2019,05,24,06,24,11.00
2019,05,24,06,25,11.00
2019,05,24,06,26,11.00
2019,05,24,06,27,11.00
2019,05,24,06,28,11.00
2019,05,24,06,29,11.00
2019,05,24,06,30,11.10
2019,05,24,06,31,11.10
2019,05,24,06,32,11.10
2019,05,24,06,33,11.20
2019,05,24,06,34,11.20
2019,05,24,06,35,11.30
2019,05,24,06,36,11.30
2019,05,24,06,37,11.30
2019,05,24,06,38,11.40
2019,05,24,06,39,11.40
2019,05,24,06,40,11.40
2019,05,24,06,41,11.50
2019,05,24,06,42,11.50
2019,05,24,06,43,11.60
2019,05,24,06,44,11.60
2019,05,24,06,45,11.60
2019,05,24,06,46,11.70
2019,05,24,06,47,11.70
2019,05,24,06,48,11.70
2019,05,24,06,49,11.80
2019,05,24,06,50,11.80
2019,05,24,06,51,11.90
2019,05,24,06,52,12.00
2019,05,24,06,53,12.10
2019,05,24,06,54,12.10
2019,05,24,06,55,12.10
2019,05,24,06,56,12.20
2019,05,24,06,57,12.30
2019,05,24,06,58,12.30
2019,05,24,06,59,12.30
2019,05,24,07,00,12.40
2019,05,24,07,01,12.40
2019,05,24,07,02,12.40
2019,05,24,07,03,12.40
2019,05,24,07,04,12.40
2019,05,24,07,05,12.50
2019,05,24,07,06,12.50
2019,05,24,07,07,12.50
2019,05,24,07,08,12.60
2019,05,24,07,09,12.60
2019,05,24,07,10,12.60
2019,05,24,07,11,12.70
2019,05,24,07,12,12.70
2019,05,24,07,13,12.70
2019,05,24,07,14,12.70
2019,05,24,07,15,12.80
2019,05,24,07,16,12.80
2019,05,24,07,17,12.80
2019,05,24,07,18,12.80
2019,05,24,07,19,12.80
2019,05,24,07,20,12.80
2019,05,24,07,21,12.80
2019,05,24,07,22,12.90
2019,05,24,07,23,12.90
2019,05,24,07,24,12.90
2019,05,24,07,25,12.90
2019,05,24,07,26,12.90
2019,05,24,07,27,13.00
2019,05,24,07,28,13.00
2019,05,24,07,29,13.10
2019,05,24,07,30,13.10
2019,05,24,07,31,13.20
2019,05,24,07,32,13.20
2019,05,24,07,33,13.20
2019,05,24,07,34,13.30
2019,05,24,07,35,13.30
2019,05,24,07,36,13.30
2019,05,24,07,37,13.40
2019,05,24,07,38,13.50
2019,05,24,07,39,13.60
2019,05,24,07,40,13.70
2019,05,24,07,41,13.80
2019,05,24,07,42,13.80
2019,05,24,07,43,13.90
2019,05,24,07,44,13.90
2019,05,24,07,45,14.00
2019,05,24,07,46,14.00
2019,05,24,07,47,14.10
2019,05,24,07,48,14.10
2019,05,24,07,49,14.20
2019,05,24,07,50,14.20
2019,05,24,07,51,14.20
2019,05,24,07,52,14.30
2019,05,24,07,53,14.30
2019,05,24,07,54,14.30
2019,05,24,07,55,14.30
2019,05,24,07,56,14.40
2019,05,24,07,57,14.40
2019,05,24,07,58,14.40
2019,05,24,07,59,14.40
2019,05,24,08,00,14.50
2019,05,24,08,01,14.50
2019,05,24,08,02,14.60
2019,05,24,08,03,14.60
2019,05,24,08,04,14.60
2019,05,24,08,05,14.60
2019,05,24,08,06,14.60
2019,05,24,08,07,14.60
2019,05,24,08,08,14.60
2019,05,24,08,09,14.60
2019,05,24,08,10,14.50
2019,05,24,08,11,14.40
2019,05,24,08,12,14.40
2019,05,24,08,13,14.30
2019,05,24,08,14,14.30
2019,05,24,08,15,14.30
2019,05,24,08,16,14.30
2019,05,24,08,17,14.30
2019,05,24,08,18,14.40
2019,05,24,08,19,14.40
2019,05,24,08,20,14.40
2019,05,24,08,21,14.40
2019,05,24,08,22,14.40
2019,05,24,08,23,14.40
2019,05,24,08,24,14.50
2019,05,24,08,25,14.50
2019,05,24,08,26,14.50
2019,05,24,08,27,14.50
2019,05,24,08,28,14.50
2019,05,24,08,29,14.50
2019,05,24,08,30,14.50
2019,05,24,08,31,14.40
2019,05,24,08,32,14.40
2019,05,24,08,33,14.40
2019,05,24,08,34,14.40
2019,05,24,08,35,14.40
2019,05,24,08,36,14.40
2019,05,24,08,37,14.40
2019,05,24,08,38,14.40
2019,05,24,08,39,14.40
2019,05,24,08,40,14.40
2019,05,24,08,41,14.50
2019,05,24,08,42,14.60
2019,05,24,08,43,14.70
2019,05,24,08,44,14.70
2019,05,24,08,45,14.80
2019,05,24,08,46,14.80
2019,05,24,08,47,14.90
2019,05,24,08,48,15.00
2019,05,24,08,49,15.10
2019,05,24,08,50,15.10
2019,05,24,08,51,15.20
2019,05,24,08,52,15.20
2019,05,24,08,53,15.30
2019,05,24,08,54,15.30
2019,05,24,08,55,15.40
2019,05,24,08,56,15.50
2019,05,24,08,57,15.60
2019,05,24,08,58,15.70
2019,05,24,08,59,15.70
2019,05,24,09,00,15.80
2019,05,24,09,01,15.90
2019,05,24,09,02,16.00
2019,05,24,09,03,16.10
2019,05,24,09,04,16.20
2019,05,24,09,05,16.30
2019,05,24,09,06,16.30
2019,05,24,09,07,16.40
2019,05,24,09,08,16.50
2019,05,24,09,09,16.60
2019,05,24,09,10,16.60
2019,05,24,09,11,16.70
2019,05,24,09,12,16.60
2019,05,24,09,13,16.60
2019,05,24,09,14,16.60
2019,05,24,09,15,16.60
2019,05,24,09,16,16.60
2019,05,24,09,17,16.60
2019,05,24,09,18,16.70
2019,05,24,09,19,16.70
2019,05,24,09,20,16.80
2019,05,24,09,21,16.80
2019,05,24,09,22,16.80
2019,05,24,09,23,16.80
2019,05,24,09,24,16.80
2019,05,24,09,25,16.90
2019,05,24,09,26,16.90
2019,05,24,09,27,16.90
2019,05,24,09,28,17.00
2019,05,24,09,29,17.10
2019,05,24,09,30,17.10
2019,05,24,09,31,17.10
2019,05,24,09,32,17.20
2019,05,24,09,33,17.20
2019,05,24,09,34,17.20
2019,05,24,09,35,17.20
2019,05,24,09,36,17.20
2019,05,24,09,37,17.20
2019,05,24,09,38,17.20
2019,05,24,09,39,17.20
2019,05,24,09,40,17.20
2019,05,24,09,41,17.30
2019,05,24,09,42,17.30
2019,05,24,09,43,17.30
2019,05,24,09,44,17.40
2019,05,24,09,45,17.40
2019,05,24,09,46,17.60
2019,05,24,09,47,17.60
2019,05,24,09,48,17.60
2019,05,24,09,49,17.60
2019,05,24,09,50,17.70
2019,05,24,09,51,17.70
2019,05,24,09,52,17.70
2019,05,24,09,53,17.70
2019,05,24,09,54,17.70
2019,05,24,09,55,17.70
2019,05,24,09,56,17.70
2019,05,24,09,57,17.60
2019,05,24,09,58,17.60
2019,05,24,09,59,17.60
2019,05,24,10,00,17.70
2019,05,24,10,01,17.70
2019,05,24,10,02,17.80
2019,05,24,10,03,17.80
2019,05,24,10,04,17.90
2019,05,24,10,05,17.90
2019,05,24,10,06,18.00
2019,05,24,10,07,18.10
2019,05,24,10,08,18.20
2019,05,24,10,09,18.20
2019,05,24,10,10,18.20
2019,05,24,10,11,18.20
2019,05,24,10,12,18.30
2019,05,24,10,13,18.30
2019,05,24,10,14,18.40
2019,05,24,10,15,18.40
2019,05,24,10,16,18.30
2019,05,24,10,17,18.20
2019,05,24,10,18,18.20
2019,05,24,10,19,18.20
2019,05,24,10,20,18.30
2019,05,24,10,21,18.30
2019,05,24,10,22,18.40
2019,05,24,10,23,18.40
2019,05,24,10,24,18.60
2019,05,24,10,25,18.70
2019,05,24,10,26,18.80
2019,05,24,10,27,18.90
2019,05,24,10,28,18.90
2019,05,24,10,29,19.10
2019,05,24,10,30,19.10
2019,05,24,10,31,19.10
2019,05,24,10,32,19.20
2019,05,24,10,33,19.10
2019,05,24,10,34,19.10
2019,05,24,10,35,19.10
2019,05,24,10,36,19.10
2019,05,24,10,37,19.10
2019,05,24,10,38,19.20
2019,05,24,10,39,19.20
2019,05,24,10,40,19.20
2019,05,24,10,41,19.10
2019,05,24,10,42,18.90
2019,05,24,10,43,18.80
2019,05,24,10,44,18.70
2019,05,24,10,45,18.60
2019,05,24,10,46,18.60
2019,05,24,10,47,18.50
2019,05,24,10,48,18.50
2019,05,24,10,49,18.60
2019,05,24,10,50,18.70
2019,05,24,10,51,18.70
2019,05,24,10,52,18.80
2019,05,24,10,53,19.00
2019,05,24,10,54,19.10
2019,05,24,10,55,19.20
2019,05,24,10,56,19.20
2019,05,24,10,57,19.20
2019,05,24,10,58,19.20
2019,05,24,10,59,19.20
2019,05,24,11,00,19.10
2019,05,24,11,01,19.10
2019,05,24,11,02,19.10
2019,05,24,11,03,19.10
2019,05,24,11,04,19.20
2019,05,24,11,05,19.20
2019,05,24,11,06,19.20
2019,05,24,11,07,19.30
2019,05,24,11,08,19.20
2019,05,24,11,09,19.20
2019,05,24,11,10,19.10
2019,05,24,11,11,18.90
2019,05,24,11,12,18.80
2019,05,24,11,13,18.70
2019,05,24,11,14,18.60
2019,05,24,11,15,18.60
2019,05,24,11,16,18.50
2019,05,24,11,17,18.60
2019,05,24,11,18,18.60
2019,05,24,11,19,18.70
2019,05,24,11,20,18.80
2019,05,24,11,21,18.90
2019,05,24,11,22,19.10
2019,05,24,11,23,19.20
2019,05,24,11,24,19.20
2019,05,24,11,25,19.30
2019,05,24,11,26,19.20
2019,05,24,11,27,19.10
2019,05,24,11,28,18.90
2019,05,24,11,29,18.90
2019,05,24,11,30,18.70
2019,05,24,11,31,18.60
2019,05,24,11,32,18.60
2019,05,24,11,33,18.60
2019,05,24,11,34,18.70
2019,05,24,11,35,18.80
2019,05,24,11,36,19.00
2019,05,24,11,37,19.10
2019,05,24,11,38,19.20
2019,05,24,11,39,19.20
2019,05,24,11,40,19.20
2019,05,24,11,41,19.30
2019,05,24,11,42,19.40
2019,05,24,11,43,19.50
2019,05,24,11,44,19.60
2019,05,24,11,45,19.70
2019,05,24,11,46,19.80
2019,05,24,11,47,20.10
2019,05,24,11,48,20.20
2019,05,24,11,49,20.20
2019,05,24,11,50,20.30
2019,05,24,11,51,20.30
2019,05,24,11,52,20.30
2019,05,24,11,53,20.30
2019,05,24,11,54,20.20
2019,05,24,11,55,20.20
2019,05,24,11,56,20.10
2019,05,24,11,57,20.10
2019,05,24,11,58,20.10
2019,05,24,11,59,20.10
2019,05,24,12,00,20.10
2019,05,24,12,01,20.00
2019,05,24,12,02,19.70
2019,05,24,12,03,19.50
2019,05,24,12,04,19.40
2019,05,24,12,05,19.30
2019,05,24,12,06,19.10
2019,05,24,12,07,18.90
2019,05,24,12,08,18.70
2019,05,24,12,09,18.70
2019,05,24,12,10,18.70
2019,05,24,12,11,18.80
2019,05,24,12,12,18.80
2019,05,24,12,13,18.90
2019,05,24,12,14,19.10
2019,05,24,12,15,19.20
2019,05,24,12,16,19.40
2019,05,24,12,17,19.50
2019,05,24,12,18,19.70
2019,05,24,12,19,19.80
2019,05,24,12,20,19.90
2019,05,24,12,21,20.00
2019,05,24,12,22,20.10
2019,05,24,12,23,20.20
2019,05,24,12,24,20.30
2019,05,24,12,25,20.40
2019,05,24,12,26,20.40
2019,05,24,12,27,20.50
2019,05,24,12,28,20.60
2019,05,24,12,29,20.70
2019,05,24,12,30,20.80
2019,05,24,12,31,20.90
2019,05,24,12,32,20.90
2019,05,24,12,33,20.90
2019,05,24,12,34,20.90
2019,05,24,12,35,20.90
2019,05,24,12,36,20.90
2019,05,24,12,37,21.00
2019,05,24,12,38,21.10
2019,05,24,12,39,21.20
2019,05,24,12,40,21.30
2019,05,24,12,41,21.20
2019,05,24,12,42,21.20
2019,05,24,12,43,21.20
2019,05,24,12,44,21.30
2019,05,24,12,45,21.30
2019,05,24,12,46,21.20
2019,05,24,12,47,21.10
2019,05,24,12,48,21.10
2019,05,24,12,49,21.10
2019,05,24,12,50,21.10
2019,05,24,12,51,21.10
2019,05,24,12,52,20.90
2019,05,24,12,53,20.80
2019,05,24,12,54,20.70
2019,05,24,12,55,20.70
2019,05,24,12,56,20.40
2019,05,24,12,57,20.30
2019,05,24,12,58,20.20
2019,05,24,12,59,20.10
2019,05,24,13,00,20.00
2019,05,24,13,01,20.00
2019,05,24,13,02,20.00
2019,05,24,13,03,20.00
2019,05,24,13,04,20.00
2019,05,24,13,05,19.90
2019,05,24,13,06,19.80
2019,05,24,13,07,19.80
2019,05,24,13,08,19.70
2019,05,24,13,09,19.70
2019,05,24,13,10,19.80
2019,05,24,13,11,19.80
2019,05,24,13,12,19.90
2019,05,24,13,13,19.90
2019,05,24,13,14,19.90
2019,05,24,13,15,19.90
2019,05,24,13,16,19.80
2019,05,24,13,17,19.70
2019,05,24,13,18,19.60
2019,05,24,13,19,19.40
2019,05,24,13,20,19.40
2019,05,24,13,21,19.30
2019,05,24,13,22,19.20
2019,05,24,13,23,19.10
2019,05,24,13,24,18.90
2019,05,24,13,25,18.90
2019,05,24,13,26,19.00
2019,05,24,13,27,19.10
2019,05,24,13,28,19.20
2019,05,24,13,29,19.40
2019,05,24,13,30,19.60
2019,05,24,13,31,19.70
2019,05,24,13,32,19.80
2019,05,24,13,33,20.10
2019,05,24,13,34,20.20
2019,05,24,13,35,20.30
2019,05,24,13,36,20.50
2019,05,24,13,37,20.60
2019,05,24,13,38,20.70
2019,05,24,13,39,20.60
2019,05,24,13,40,20.60
2019,05,24,13,41,20.60
2019,05,24,13,42,20.60
2019,05,24,13,43,20.70
2019,05,24,13,44,20.70
2019,05,24,13,45,20.70
2019,05,24,13,46,20.70
2019,05,24,13,47,20.70
2019,05,24,13,48,20.70
2019,05,24,13,49,20.60
2019,05,24,13,50,20.60
2019,05,24,13,51,20.60
2019,05,24,13,52,20.60
2019,05,24,13,53,20.60
2019,05,24,13,54,20.60
2019,05,24,13,55,20.60
2019,05,24,13,56,20.60
2019,05,24,13,57,20.70
2019,05,24,13,58,20.80
2019,05,24,13,59,20.80
2019,05,24,14,00,20.80
2019,05,24,14,01,20.70
2019,05,24,14,02,20.70
2019,05,24,14,03,20.70
2019,05,24,14,04,20.70
2019,05,24,14,05,20.80
2019,05,24,14,06,20.80
2019,05,24,14,07,20.80
2019,05,24,14,08,20.80
2019,05,24,14,09,20.70
2019,05,24,14,10,20.40
2019,05,24,14,11,20.30
2019,05,24,14,12,20.20
2019,05,24,14,13,20.20
2019,05,24,14,14,20.20
2019,05,24,14,15,20.20
2019,05,24,14,16,20.20
2019,05,24,14,17,20.20
2019,05,24,14,18,20.00
2019,05,24,14,19,19.90
2019,05,24,14,20,19.80
2019,05,24,14,21,19.60
2019,05,24,14,22,19.60
2019,05,24,14,23,19.50
2019,05,24,14,24,19.50
2019,05,24,14,25,19.50
2019,05,24,14,26,19.60
2019,05,24,14,27,19.60
2019,05,24,14,28,19.70
2019,05,24,14,29,19.80
2019,05,24,14,30,19.90
2019,05,24,14,31,20.00
2019,05,24,14,32,20.10
2019,05,24,14,33,20.10
2019,05,24,14,34,20.10
2019,05,24,14,35,20.10
2019,05,24,14,36,20.10
2019,05,24,14,37,20.10
2019,05,24,14,38,20.10
2019,05,24,14,39,20.10
2019,05,24,14,40,20.10
2019,05,24,14,41,20.20
2019,05,24,14,42,20.20
2019,05,24,14,43,20.20
2019,05,24,14,44,20.20
2019,05,24,14,45,20.30
2019,05,24,14,46,20.30
2019,05,24,14,47,20.40
2019,05,24,14,48,20.40
2019,05,24,14,49,20.50
2019,05,24,14,50,20.60
2019,05,24,14,51,20.60
2019,05,24,14,52,20.50
2019,05,24,14,53,20.40
2019,05,24,14,54,20.40
2019,05,24,14,55,20.40
2019,05,24,14,56,20.30
2019,05,24,14,57,20.40
2019,05,24,14,58,20.40
2019,05,24,14,59,20.40
2019,05,24,15,00,20.60
2019,05,24,15,01,20.60
2019,05,24,15,02,20.60
2019,05,24,15,03,20.60
2019,05,24,15,04,20.60
2019,05,24,15,05,20.60
2019,05,24,15,06,20.60
2019,05,24,15,07,20.70
2019,05,24,15,08,20.70
2019,05,24,15,09,20.80
2019,05,24,15,10,20.90
2019,05,24,15,11,21.10
2019,05,24,15,12,21.20
2019,05,24,15,13,21.30
2019,05,24,15,14,21.40
2019,05,24,15,15,21.40
2019,05,24,15,16,21.50
2019,05,24,15,17,21.60
2019,05,24,15,18,21.60
2019,05,24,15,19,21.70
2019,05,24,15,20,21.80
2019,05,24,15,21,21.90
2019,05,24,15,22,22.00
2019,05,24,15,23,22.10
2019,05,24,15,24,22.20
2019,05,24,15,25,22.20
2019,05,24,15,26,22.30
2019,05,24,15,27,22.20
2019,05,24,15,28,22.10
2019,05,24,15,29,21.90
2019,05,24,15,30,21.80
2019,05,24,15,31,21.70
2019,05,24,15,32,21.60
2019,05,24,15,33,21.50
2019,05,24,15,34,21.40
2019,05,24,15,35,21.30
2019,05,24,15,36,21.30
2019,05,24,15,37,21.30
2019,05,24,15,38,21.30
2019,05,24,15,39,21.40
2019,05,24,15,40,21.50
2019,05,24,15,41,21.60
2019,05,24,15,42,21.70
2019,05,24,15,43,21.80
2019,05,24,15,44,21.80
2019,05,24,15,45,21.80
2019,05,24,15,46,21.60
2019,05,24,15,47,21.40
2019,05,24,15,48,21.30
2019,05,24,15,49,21.30
2019,05,24,15,50,21.10
2019,05,24,15,51,20.90
2019,05,24,15,52,20.70
2019,05,24,15,53,20.60
2019,05,24,15,54,20.40
2019,05,24,15,55,20.30
2019,05,24,15,56,20.30
2019,05,24,15,57,20.30
2019,05,24,15,58,20.20
2019,05,24,15,59,20.20
2019,05,24,16,00,20.20
2019,05,24,16,01,20.20
2019,05,24,16,02,20.20
2019,05,24,16,03,20.20
2019,05,24,16,04,20.20
2019,05,24,16,05,20.20
2019,05,24,16,06,20.20
2019,05,24,16,07,20.10
2019,05,24,16,08,20.10
2019,05,24,16,09,20.10
2019,05,24,16,10,20.10
2019,05,24,16,11,20.10
2019,05,24,16,12,20.10
2019,05,24,16,13,20.20
2019,05,24,16,14,20.30
2019,05,24,16,15,20.50
2019,05,24,16,16,20.70
2019,05,24,16,17,20.80
2019,05,24,16,18,20.90
2019,05,24,16,19,21.00
2019,05,24,16,20,21.00
2019,05,24,16,21,21.00
2019,05,24,16,22,21.00
2019,05,24,16,23,21.00
2019,05,24,16,24,21.00
2019,05,24,16,25,20.90
2019,05,24,16,26,20.90
2019,05,24,16,27,20.90
2019,05,24,16,28,20.90
2019,05,24,16,29,20.90
2019,05,24,16,30,21.10
2019,05,24,16,31,21.10
2019,05,24,16,32,21.20
2019,05,24,16,33,21.10
2019,05,24,16,34,21.20
2019,05,24,16,35,21.20
2019,05,24,16,36,21.30
2019,05,24,16,37,21.30
2019,05,24,16,38,21.40
2019,05,24,16,39,21.40
2019,05,24,16,40,21.50
2019,05,24,16,41,21.60
2019,05,24,16,42,21.70
2019,05,24,16,43,21.80
2019,05,24,16,44,21.90
2019,05,24,16,45,22.10
2019,05,24,16,46,22.10
2019,05,24,16,47,22.20
2019,05,24,16,48,22.30
2019,05,24,16,49,22.20
2019,05,24,16,50,22.00
2019,05,24,16,51,21.90
2019,05,24,16,52,21.90
2019,05,24,16,53,21.90
2019,05,24,16,54,21.90
2019,05,24,16,55,21.90
2019,05,24,16,56,21.90
2019,05,24,16,57,22.00
2019,05,24,16,58,22.10
2019,05,24,16,59,22.10
2019,05,24,17,00,22.20
2019,05,24,17,01,22.20
2019,05,24,17,02,22.20
2019,05,24,17,03,22.20
2019,05,24,17,04,22.20
2019,05,24,17,05,22.20
2019,05,24,17,06,22.30
2019,05,24,17,07,22.30
2019,05,24,17,08,22.20
2019,05,24,17,09,22.10
2019,05,24,17,10,22.10
2019,05,24,17,11,22.00
2019,05,24,17,12,21.90
2019,05,24,17,13,21.90
2019,05,24,17,14,21.90
2019,05,24,17,15,21.90
2019,05,24,17,16,21.90
2019,05,24,17,17,21.90
2019,05,24,17,18,21.90
2019,05,24,17,19,21.90